(92) Undina
ephemeris date magn radius delta ra dec elong phase
Today18 Sep 202513.03.430 AU4.366 AU12h56m+02°19'18.8°5.4°
Opposition16 May 202611.33.227 AU2.228 AU15h42m-08°58'169.6°3.2°
(92) Undina - 2025-09-18
astro.vanbuitenen.nl


 
-1 year
-1 month
-1 day
Now
+1 day
+1 month
+1 year

The interactive orbit chart above shows the body's path through the solar system and its position at the given date. Green and blue lines are shown perpendicular to the ecliptic plane: Green if the path is above the ecliptic plane, blue if it is below. (Left-click and drag to rotate the view; Right-click and drag to move the view; Use scroll wheel to zoom in our out.)

The orbital elements of Undina are:

            e (Eccentricity)                : 0.1049890
            a (Semimajor axis)              : 3.1848901
            i (Inclination)                 : 9.92326
            Ω (Longitude of ascending node) : 101.39359
            ω (Argument of perihelion)      : 236.76975
            M (Mean anomaly)                : 203.39111
            Epoch                           : 2025 May 05

            L (Longitude of perihelion)     : 157.76627
            B (Latitude of perihelion)      : -8.28800
            P (Orbital period in years)     : 5.68            
        

The light curve chart below shows the estimated development of the minor planet's magnitude.


The all-sky chart below shows the path of the minor planet over the same period as the light curve. The current position is marked yellow.





The following chart shows the path of the minor planet in the next few days. The field of view is optimized for (~10x50) binoculars and finderscopes. A more printer-friendly version of the same chart can be found below.




Ephemerides:
Date       Time       RA (2000)    DEC (2000)    delta   radius  elong  phase   PA    magn
2025-09-18 00:00 UT   12 56 44.0   +02 19 53     4.366    3.430   18.8    5.4    89   13.0 
2025-09-18 11:19 UT   12 57 18.2   +02 15 60     4.368    3.430   18.5    5.3    89   13.0 
2025-09-19 00:00 UT   12 57 56.6   +02 11 38     4.369    3.429   18.2    5.2    88   13.0 
2025-09-20 00:00 UT   12 59 09.2   +02 03 23     4.372    3.429   17.6    5.1    88   13.0 
2025-09-21 00:00 UT   13 00 22.1   +01 55 09     4.375    3.428   17.0    4.9    87   13.0 
2025-09-22 00:00 UT   13 01 35.1   +01 46 56     4.378    3.427   16.5    4.8    86   13.0 
2025-09-23 00:00 UT   13 02 48.2   +01 38 43     4.381    3.427   15.9    4.6    84   13.0 
2025-09-24 00:00 UT   13 04 01.6   +01 30 32     4.383    3.426   15.3    4.4    83   13.0 
2025-09-25 00:00 UT   13 05 15.0   +01 22 21     4.386    3.425   14.8    4.3    82   13.0 
2025-09-26 00:00 UT   13 06 28.6   +01 14 11     4.388    3.425   14.2    4.1    81   13.0 
2025-09-27 00:00 UT   13 07 42.3   +01 06 01     4.390    3.424   13.7    4.0    79   13.0 
2025-09-28 00:00 UT   13 08 56.2   +00 57 53     4.392    3.423   13.2    3.8    77   13.0 
2025-09-29 00:00 UT   13 10 10.2   +00 49 46     4.393    3.423   12.6    3.7    76   12.9 
2025-09-30 00:00 UT   13 11 24.3   +00 41 40     4.395    3.422   12.1    3.5    74   12.9 
2025-10-01 00:00 UT   13 12 38.6   +00 33 34     4.396    3.421   11.6    3.4    72   12.9 
2025-10-02 00:00 UT   13 13 53.0   +00 25 30     4.397    3.421   11.2    3.2    70   12.9 
2025-10-03 00:00 UT   13 15 07.5   +00 17 27     4.398    3.420   10.7    3.1    67   12.9 
2025-10-04 00:00 UT   13 16 22.1   +00 09 26     4.399    3.419   10.3    3.0    65   12.9 
2025-10-05 00:00 UT   13 17 36.8   +00 01 25     4.400    3.419    9.8    2.9    62   12.9 
2025-10-06 00:00 UT   13 18 51.6   +00 06 34     4.400    3.418    9.4    2.7    59   12.9 
2025-10-07 00:00 UT   13 20 06.6   +00 14 32     4.401    3.417    9.1    2.6    55   12.9 
2025-10-08 00:00 UT   13 21 21.6   +00 22 29     4.401    3.417    8.7    2.5    52   12.9 
2025-10-09 00:00 UT   13 22 36.8   +00 30 25     4.401    3.416    8.4    2.5    48   12.9 
2025-10-10 00:00 UT   13 23 52.1   +00 38 19     4.401    3.415    8.2    2.4    44   12.9 
2025-10-11 00:00 UT   13 25 07.4   +00 46 12     4.401    3.415    7.9    2.3    39   12.9 
2025-10-12 00:00 UT   13 26 22.9   +00 54 03     4.400    3.414    7.8    2.3    35   12.9 
2025-10-13 00:00 UT   13 27 38.4   -01 01 53     4.400    3.413    7.7    2.2    30   12.8 


    Terminology:
            
    delta:  distance between minor planet and earth in AU
    radius: distance between minor planet and sun in AU
    magn:   magnitude (brightness) estimate    
    ra:     right ascension in hours (24h = 360deg)
    dec:    declination in degrees
    elong:  elongation in degrees (angle sun-earth-minor planet)    
    phase:  phase angle in degrees (angle sun-minor planet-earth)        
    AU:     Astronomical Unit (mean distance between earth and sun: 149597870.7 km
    

Orbital elements provided by the MPC (Minor Planet Center).
Calculations by a modified version of AAPlus, a C# implementation of the AA+ project by PJ Naughter from the algorithms presented in the book "Astronomical Algorithms" by Jean Meeus.
NGC2000 dso catalog and star labels from VizieR as provided by the Strasbourg astronomical Data Center.
Tycho2 catalog from the ESO archive.